DateTimeUTC,F1_A11,F1_S11,BsB_S11,BsG_S11,BsR_S11,BbsB_S11,BbsG_S11,BbsR_S11,BaB_A11,BaG_A11,BaR_A11,Tu_S11,T_S11,Uu_S11,U_S11,P_S11,T1_A11
2021-01-05T22:00:00Z,00000200,21000000,,,,,,,0000.27,0000.06,-000.05,15.0,22.0,,00.0,0637.1,30.7
2021-01-05T22:01:00Z,00000200,21000000,,,,,,,0000.05,-000.18,-000.15,14.9,22.0,,00.0,0637.1,30.7
2021-01-05T22:02:00Z,00000200,21000000,,,,,,,-000.52,0000.09,0000.28,14.9,22.0,,00.0,0637.1,30.7
2021-01-05T22:03:00Z,00000200,61000000,,,,,,,-000.09,-000.21,-000.24,14.9,22.0,,00.0,0637.1,30.7
2021-01-05T22:04:00Z,00000200,41000000,0001.08,0000.30,-000.14,0000.24,-000.20,-000.22,0000.29,-000.05,-000.18,15.0,21.7,,00.0,0637.9,30.7
2021-01-05T22:05:00Z,00000200,01000000,0000.51,-000.15,0000.10,-000.22,0000.10,0000.10,0000.04,0000.05,0000.16,15.0,21.6,,00.0,0638.0,30.7
2021-01-05T22:06:00Z,00000200,01000000,0000.36,0000.28,0000.02,0000.58,-000.12,0000.06,-000.09,0000.04,0000.15,15.0,21.7,,00.0,0638.0,30.7
2021-01-05T22:07:00Z,00000200,01000000,0000.40,0000.34,0000.11,-000.10,-000.26,0000.33,0000.13,0000.26,-000.01,15.1,21.7,,00.0,0638.0,30.7
2021-01-05T22:08:00Z,00000200,01000000,0000.29,0000.30,-000.09,-000.04,0000.02,-000.04,0000.37,0000.15,0000.16,15.2,21.7,,00.0,0638.0,30.7
2021-01-05T22:09:00Z,00000200,01000000,0000.87,0000.23,-000.20,0000.03,0000.27,0000.03,0000.05,-000.03,-000.16,15.2,21.7,,00.0,0638.1,30.7
2021-01-05T22:10:00Z,00000200,01000000,0000.37,0000.28,-000.00,0000.20,0000.01,-000.06,-000.09,-000.04,-000.01,15.2,21.7,,00.0,0638.1,30.7
2021-01-05T22:11:00Z,00000200,01000000,0000.44,0000.38,-000.28,0000.22,0000.05,-000.12,0000.08,0000.11,0000.36,15.3,21.7,,00.0,0638.2,30.7
2021-01-05T22:12:00Z,00000200,01000000,0000.42,0000.10,0000.01,0000.16,0000.03,-000.06,-000.10,0000.04,-000.12,15.3,21.7,,00.0,0638.2,30.7
2021-01-05T22:13:00Z,00000200,01000000,0000.91,0000.60,0000.12,0000.13,-000.13,0000.26,-000.17,-000.19,-000.07,15.4,21.8,,00.0,0638.2,30.7
2021-01-05T22:14:00Z,00000200,01000000,0001.22,-000.04,0000.02,0000.56,-000.18,-000.07,0000.44,0000.30,0000.18,15.4,21.7,,00.0,0638.2,30.7
2021-01-05T22:15:00Z,00000200,01000000,0000.30,0000.29,-000.06,0000.37,0000.32,-000.11,0000.14,0000.01,-000.02,15.3,21.7,,00.0,0638.1,30.7
2021-01-05T22:16:00Z,00000200,01000000,0000.57,0000.18,0000.17,0000.09,-000.22,0000.05,-000.17,-000.02,-000.07,15.3,21.7,,00.0,0638.1,30.7
2021-01-05T22:17:00Z,00000200,01000000,0000.70,-000.12,0000.25,0000.32,0000.36,0000.24,0000.28,0000.02,-000.01,15.2,21.7,,00.0,0638.1,30.7
2021-01-05T22:18:00Z,00000200,01000000,0000.59,0000.09,0000.09,-000.09,0000.18,0000.28,-000.24,-000.21,-000.10,15.1,21.6,,00.0,0638.2,30.7
2021-01-05T22:19:00Z,00000200,01000000,0000.59,-000.07,0000.08,-000.32,0000.32,0000.05,-000.09,0000.14,0000.24,15.1,21.6,,00.0,0638.2,30.7
2021-01-05T22:20:00Z,00000200,01000000,0000.36,0000.05,0000.09,0000.14,0000.20,-000.02,0000.14,-000.00,-000.38,15.1,21.6,,00.0,0638.2,30.7
2021-01-05T22:21:00Z,00000200,01000000,0001.06,-000.21,0000.10,-000.40,0000.15,0000.07,-000.04,-000.01,0000.45,15.1,21.6,,00.0,0638.2,30.7
2021-01-05T22:22:00Z,00000200,01000000,0000.51,-000.01,0000.14,-000.18,0000.09,0000.10,0000.22,0000.16,-000.13,15.2,21.6,,00.0,0638.2,30.7
2021-01-05T22:23:00Z,00000200,01000000,0001.13,-000.01,0000.12,-000.22,0000.09,0000.06,0000.30,-000.11,0000.07,15.2,21.7,,00.0,0638.2,30.7
2021-01-05T22:24:00Z,00000200,01000000,0000.23,0000.08,0000.40,-000.33,0000.04,0000.12,-000.24,0000.45,0000.19,15.2,21.7,,00.0,0638.3,30.7
2021-01-05T22:25:00Z,00000200,01000000,0000.41,-000.00,0000.39,-000.21,0000.12,0000.10,0000.12,-000.16,0000.16,15.3,21.7,,00.0,0638.3,30.7
2021-01-05T22:26:00Z,00000200,01000000,0000.78,0000.24,0000.29,0000.10,0000.11,0000.21,0000.05,0000.19,0000.20,15.3,21.7,,00.0,0638.3,30.7
2021-01-05T22:27:00Z,00000200,01000000,0000.37,0000.21,-000.11,-000.21,0000.08,0000.07,0000.20,0000.26,-000.24,15.3,21.7,,00.0,0638.3,30.7
2021-01-05T22:28:00Z,00000200,01000000,0000.43,0000.25,-000.03,0000.49,0000.04,-000.09,0000.29,-000.10,0000.42,15.4,21.7,,00.0,0638.3,30.7
2021-01-05T22:29:00Z,00000200,01000000,0000.63,0000.19,-000.24,0000.43,0000.12,-000.13,0000.16,0000.36,-000.01,15.4,21.7,,00.0,0638.3,30.7
2021-01-05T22:30:00Z,00000200,01000000,0000.35,0000.02,0000.02,-000.12,-000.02,-000.01,-000.34,0000.05,-000.24,15.3,21.7,,00.0,0638.3,30.7
2021-01-05T22:31:00Z,00000200,01000000,0000.72,0000.18,0000.22,0000.26,-000.11,0000.26,-000.01,-000.27,0000.21,15.2,21.7,,00.0,0638.3,30.7
2021-01-05T22:32:00Z,00000200,01000000,0000.44,0000.03,0000.26,0000.20,-000.07,-000.09,-000.18,-000.14,-000.27,15.1,21.6,,00.0,0638.4,30.7
2021-01-05T22:33:00Z,00000200,01000000,0000.67,0000.03,0000.14,-000.02,-000.13,-000.19,0000.69,0000.17,0000.45,15.0,21.6,,00.0,0638.4,30.6
2021-01-05T22:34:00Z,00000200,01000000,0000.66,0000.08,-000.02,0000.31,-000.03,0000.21,-000.51,-000.09,-000.42,15.0,21.6,,00.0,0638.5,30.6
2021-01-05T22:35:00Z,00000200,01000000,-000.06,-000.09,0000.13,-000.05,-000.01,-000.00,0000.14,-000.02,0000.28,15.0,21.6,,00.0,0638.5,30.7
2021-01-05T22:36:00Z,00000200,01000000,0000.21,0000.03,0000.44,-000.11,-000.02,0000.11,0000.04,0000.22,-000.11,15.0,21.6,,00.0,0638.5,30.7
2021-01-05T22:37:00Z,00000200,01000000,0000.11,-000.04,-000.04,0000.04,-000.05,-000.27,0000.36,-000.08,0000.04,15.1,21.6,,00.0,0638.5,30.7
2021-01-05T22:38:00Z,00000200,01000000,0000.12,0000.04,-000.02,0000.00,0000.17,0000.25,-000.26,0000.05,-000.15,15.1,21.6,,00.0,0638.6,30.7
2021-01-05T22:39:00Z,00000200,01000000,0000.82,0000.17,-000.00,0000.21,0000.15,-000.11,-000.03,-000.22,0000.08,15.2,21.6,,00.0,0638.6,30.7
2021-01-05T22:40:00Z,00000200,01000000,0000.50,-000.05,-000.02,-000.36,-000.21,-000.05,0000.20,0000.49,-000.13,15.2,21.7,,00.0,0638.6,30.7
2021-01-05T22:41:00Z,00000200,01000000,0000.11,0000.22,0000.11,0000.04,-000.03,-000.18,0000.12,-000.22,0000.33,15.2,21.7,,00.0,0638.6,30.7
2021-01-05T22:42:00Z,00000200,01000000,-000.08,0000.22,-000.01,-000.40,-000.10,-000.02,0000.21,0000.62,0000.18,15.3,21.7,,00.0,0638.6,30.7
2021-01-05T22:43:00Z,00000200,01000000,0000.59,0000.20,0000.30,-000.34,0000.26,0000.21,-000.19,-000.42,0000.12,15.3,21.7,,00.0,0638.6,30.7
2021-01-05T22:44:00Z,00000200,01000000,0000.49,0000.03,0000.10,-000.11,-000.03,0000.02,0000.08,0000.28,-000.21,15.3,21.7,,00.0,0638.6,30.7
2021-01-05T22:45:00Z,00000200,01000000,0000.82,-000.04,0000.23,-000.10,-000.11,0000.06,-000.17,-000.07,0000.22,15.2,21.7,,00.0,0638.6,30.7
2021-01-05T22:46:00Z,00000200,01000000,0000.22,-000.23,-000.06,-000.43,0000.04,0000.12,0000.20,-000.02,0000.00,15.2,21.7,,00.0,0638.6,30.7
2021-01-05T22:47:00Z,00000200,01000000,0000.56,0000.20,0000.14,0000.19,-000.20,0000.08,0000.08,-000.09,-000.24,15.1,21.6,,00.0,0638.5,30.7
2021-01-05T22:48:00Z,00000200,01000000,0000.19,0000.26,0000.01,-000.50,-000.04,0000.03,-000.05,-000.19,-000.13,15.0,21.6,,00.0,0638.5,30.6
2021-01-05T22:49:00Z,00000200,01000000,0000.39,0000.05,-000.11,0000.66,0000.31,-000.20,-000.18,-000.25,-000.03,15.0,21.5,,00.0,0638.5,30.6
2021-01-05T22:50:00Z,00000200,01000000,0000.46,-000.01,0000.18,0000.44,0000.09,-000.05,-000.12,0000.16,0000.11,15.0,21.6,,00.0,0638.5,30.7
2021-01-05T22:51:00Z,00000200,01000000,0000.59,0000.07,0000.32,-000.30,0000.08,0000.06,0000.27,0000.19,0000.17,15.0,21.5,,00.0,0638.4,30.7
2021-01-05T22:52:00Z,00000200,01000000,0000.70,0000.05,0000.29,-000.13,0000.05,-000.05,0000.30,0000.20,0000.05,15.0,21.6,,00.0,0638.4,30.7
2021-01-05T22:53:00Z,00000200,01000000,0000.83,0000.07,0000.08,-000.15,0000.40,0000.21,-000.16,-000.23,-000.10,15.1,21.6,,00.0,0638.5,30.7
2021-01-05T22:54:00Z,00000200,01000000,0000.54,0000.53,-000.01,0000.00,-000.24,-000.09,0000.12,0000.37,0000.21,15.1,21.6,,00.0,0638.5,30.7
2021-01-05T22:55:00Z,00000200,01000000,0000.68,0000.24,0000.29,0000.21,-000.13,0000.37,-000.12,0000.03,0000.13,15.2,21.6,,00.0,0638.5,30.7
2021-01-05T22:56:00Z,00000200,01000000,0000.80,0000.23,0000.01,0000.21,-000.13,-000.31,0000.08,0000.09,-000.10,15.2,21.6,,00.0,0638.4,30.7
2021-01-05T22:57:00Z,00000200,41000000,,,,,,,0000.91,0000.37,0000.49,15.3,21.7,,00.0,0638.5,30.7
2021-01-05T22:58:00Z,00000200,61000000,,,,,,,-000.39,0000.25,-000.43,14.9,21.9,,00.0,0637.5,30.7
2021-01-05T22:59:00Z,00000200,21000000,,,,,,,-000.08,-000.37,0000.05,14.9,22.0,,00.0,0637.5,30.7
